TimePDT,TemperatureF,Dew PointF,Humidity,Sea Level PressureIn,VisibilityMPH,Wind Direction,Wind SpeedMPH,Gust SpeedMPH,PrecipitationIn,Events,Conditions,WindDirDegrees,DateUTC
12:56 AM,37.9,32.0,79,30.27,10.0,Calm,Calm,-,N/A,,Clear,0,2013-03-12 07:56:00
1:56 AM,37.0,32.0,82,30.26,10.0,Calm,Calm,-,N/A,,Clear,0,2013-03-12 08:56:00
2:56 AM,35.1,30.0,82,30.25,10.0,Calm,Calm,-,N/A,,Clear,0,2013-03-12 09:56:00
3:56 AM,34.0,30.0,85,30.23,10.0,Calm,Calm,-,N/A,,Clear,0,2013-03-12 10:56:00
4:56 AM,35.1,30.9,85,30.24,10.0,Calm,Calm,-,N/A,,Clear,0,2013-03-12 11:56:00
5:56 AM,36.0,32.0,86,30.24,10.0,NE,3.5,-,N/A,,Clear,50,2013-03-12 12:56:00
6:56 AM,34.0,30.9,89,30.26,10.0,Calm,Calm,-,N/A,,Clear,0,2013-03-12 13:56:00
7:56 AM,33.1,30.0,89,30.27,8.0,Calm,Calm,-,N/A,,Clear,0,2013-03-12 14:56:00
8:56 AM,42.1,35.1,76,30.27,10.0,Calm,Calm,-,N/A,,Clear,0,2013-03-12 15:56:00
9:56 AM,51.1,36.0,56,30.26,10.0,Calm,Calm,-,N/A,,Clear,0,2013-03-12 16:56:00
10:56 AM,57.9,34.0,41,30.25,10.0,Calm,Calm,-,N/A,,Clear,0,2013-03-12 17:56:00
11:56 AM,60.1,35.1,39,30.24,10.0,Variable,3.5,-,N/A,,Clear,0,2013-03-12 18:56:00
12:56 PM,64.9,37.0,36,30.23,10.0,Variable,4.6,-,N/A,,Clear,0,2013-03-12 19:56:00
1:56 PM,68.0,37.0,32,30.19,10.0,Calm,Calm,-,N/A,,Clear,0,2013-03-12 20:56:00
2:56 PM,68.0,39.0,35,30.19,10.0,WNW,5.8,-,N/A,,Clear,300,2013-03-12 21:56:00
3:56 PM,64.9,39.0,39,30.19,10.0,Variable,3.5,-,N/A,,Clear,0,2013-03-12 22:56:00
4:56 PM,66.0,39.0,37,30.17,10.0,Calm,Calm,-,N/A,,Clear,0,2013-03-12 23:56:00
5:56 PM,64.0,39.9,41,30.18,10.0,Calm,Calm,-,N/A,,Clear,0,2013-03-13 00:56:00
6:56 PM,59.0,39.9,49,30.19,10.0,Calm,Calm,-,N/A,,Clear,0,2013-03-13 01:56:00
7:56 PM,52.0,39.9,63,30.23,10.0,Calm,Calm,-,N/A,,Clear,0,2013-03-13 02:56:00
8:56 PM,46.0,36.0,68,30.25,10.0,NNE,3.5,-,N/A,,Clear,20,2013-03-13 03:56:00
9:56 PM,43.0,34.0,71,30.25,10.0,Calm,Calm,-,N/A,,Clear,0,2013-03-13 04:56:00
10:56 PM,39.9,33.1,77,30.25,9.0,Calm,Calm,-,N/A,,Clear,0,2013-03-13 05:56:00
11:56 PM,37.9,32.0,79,30.26,9.0,Calm,Calm,-,N/A,,Clear,0,2013-03-13 06:56:00